This demonstration page uses our WeatherBlox Daily Observations layout. Learn more.

Hourly Observations for June 5, 2018

Temp ( °F °C ) Dew Point ( °F °C ) Humidity (%) Winds ( mph kmh ) Pressure ( in mb ) Visibility ( mi km ) Precip ( " mm )
12:15 am 00:15 Clear 65 18.3 54 12.1 67 67 SSE 8 13 29.85 1011 10 16.09344 0 0
12:35 am 00:35 Clear 65 18.5 54 12.1 66 66 S 8 13 29.85 1011 10 16.09344 0 0
12:55 am 00:55 Clear 64 18 54 12.2 69 69 S 7 11 29.85 1011 10 16.09344 0 0
1:15 am 01:15 Clear 63 17.4 54 12.3 72 72 S 7 11 29.85 1011 10 16.09344 0 0
1:35 am 01:35 Clear 64 17.6 54 12.4 72 72 S 8 13 29.85 1011 10 16.09344 0 0
1:55 am 01:55 Clear 63 17.1 55 12.5 75 75 S 6 9 29.85 1011 10 16.09344 0 0
2:15 am 02:15 Clear 62 16.6 55 12.5 77 77 S 6 9 29.85 1011 10 16.09344 0 0
2:35 am 02:35 Clear 62 16.5 55 12.5 77 77 S 6 9 29.85 1011 10 16.09344 0 0
2:55 am 02:55 Clear 61 16 55 12.5 80 80 SSE 9 15 29.83 1010 10 16.09344 0 0
3:15 am 03:15 Clear 61 16.1 55 12.5 79 79 SSE 7 11 29.83 1010 10 16.09344 0 0
3:35 am 03:35 Clear 61 16 55 12.5 80 80 S 7 11 29.83 1010 10 16.09344 0 0
3:55 am 03:55 Clear 61 16 55 12.6 80 80 S 8 13 29.83 1010 10 16.09344 0 0
4:15 am 04:15 Clear 61 16.1 55 12.8 81 81 S 8 13 29.83 1010 10 16.09344 0 0
4:35 am 04:35 Clear 61 16 55 13 83 83 S 8 13 29.83 1010 10 16.09344 0 0
4:55 am 04:55 Clear 60 15.6 55 13 85 85 S 5 7 29.83 1010 10 16.09344 0 0
5:15 am 05:15 Clear 59 15.1 55 13 87 87 S 7 11 29.83 1010 10 16.09344 0 0
5:35 am 05:35 Clear 59 15.1 56 13.1 88 88 S 7 11 29.83 1010 10 16.09344 0 0
5:55 am 05:55 Clear 59 15.1 56 13.2 89 89 S 7 11 29.83 1010 10 16.09344 0 0
6:15 am 06:15 Sunny 59 15.1 56 13.5 90 90 S 8 13 29.83 1010 10 16.09344 0 0
6:35 am 06:35 Sunny 60 15.5 57 13.8 90 90 S 8 13 29.83 1010 10 16.09344 0 0
6:55 am 06:55 Sunny 61 15.9 57 14 89 89 S 9 15 29.83 1010 10 16.09344 0 0
7:15 am 07:15 Sunny 62 16.6 58 14.7 89 89 S 7 11 29.83 1010 10 16.09344 0 0
7:35 am 07:35 Sunny 64 17.6 59 15.2 86 86 S 7 11 29.83 1010 10 16.09344 0 0
7:55 am 07:55 Sunny 65 18.5 60 15.7 84 84 S 9 15 29.85 1011 10 16.09344 0 0
8:15 am 08:15 Hazy 67 19.3 61 16 81 81 SSW 10 17 29.83 1010 5 8.04672 0 0
8:35 am 08:35 Sunny 69 20.4 61 16.1 76 76 SSW 9 15 29.83 1010 10 16.09344 0 0
8:55 am 08:55 Sunny 70 21.2 61 16.2 73 73 SSW 12 19 29.83 1010 10 16.09344 0 0
9:15 am 09:15 Sunny 72 22 62 16.4 71 71 SW 9 15 29.83 1010 10 16.09344 0 0
9:35 am 09:35 Sunny 73 22.9 62 16.6 68 68 SSW 10 17 29.8 1009 10 16.09344 0 0
9:55 am 09:55 Sunny 74 23.4 62 16.7 66 66 SSW 10 17 29.77 1008 10 16.09344 0 0
10:15 am 10:15 Sunny 75 24 63 17.1 65 65 SSW 10 17 29.77 1008 10 16.09344 0 0
10:35 am 10:35 Sunny 76 24.7 64 17.6 65 65 SSW 9 15 29.77 1008 10 16.09344 0 0
10:55 am 10:55 Sunny 77 25.2 64 17.7 63 63 SSW 10 17 29.77 1008 10 16.09344 0 0
11:15 am 11:15 Sunny 78 25.8 65 18.1 63 63 SSW 8 13 29.74 1007 10 16.09344 0 0
11:35 am 11:35 Sunny 80 26.7 65 18.4 60 60 SSW 8 13 29.74 1007 10 16.09344 0 0
11:55 am 11:55 Sunny 82 27.6 64 17.7 55 55 SSW 9 15 29.74 1007 10 16.09344 0 0
12:15 pm 12:15 Sunny 83 28.1 65 18.1 55 55 SSW 10 17 29.74 1007 10 16.09344 0 0
12:35 pm 12:35 Sunny 84 28.7 63 17.4 50 50 S 14 22 29.74 1007 10 16.09344 0 0
12:55 pm 12:55 Sunny 85 29.2 64 17.7 50 50 S 14 22 29.74 1007 10 16.09344 0 0
1:15 pm 13:15 Sunny 85 29.5 62 16.6 46 46 S 13 20 29.71 1006 10 16.09344 0 0
1:35 pm 13:35 Sunny 86 29.9 63 17.2 46 46 S 13 20 29.68 1005 10 16.09344 0 0
1:55 pm 13:55 Sunny 86 30.1 64 17.7 47 47 S 12 19 29.68 1005 10 16.09344 0 0
2:15 pm 14:15 Sunny 87 30.4 64 17.6 46 46 SSW 13 20 29.68 1005 10 16.09344 0 0
2:35 pm 14:35 Sunny 87 30.8 64 17.8 46 46 S 13 20 29.68 1005 10 16.09344 0 0
2:55 pm 14:55 Sunny 89 31.4 65 18.4 46 46 S 13 20 29.65 1004 10 16.09344 0 0
3:15 pm 15:15 Sunny 89 31.5 63 17.1 42 42 SSW 12 19 29.65 1004 10 16.09344 0 0
3:35 pm 15:35 Sunny 89 31.6 63 17.4 43 43 SSE 13 20 29.65 1004 10 16.09344 0 0
3:55 pm 15:55 Sunny 89 31.8 64 17.5 42 42 S 12 19 29.65 1004 10 16.09344 0 0
4:15 pm 16:15 Sunny 90 32 63 17.1 41 41 S 14 22 29.65 1004 10 16.09344 0 0
4:35 pm 16:35 Sunny 90 32.3 62 16.9 40 40 S 13 20 29.65 1004 10 16.09344 0 0
4:55 pm 16:55 Sunny 91 32.5 63 17.1 40 40 SSW 13 20 29.65 1004 10 16.09344 0 0
5:15 pm 17:15 Sunny 91 32.6 62 16.8 39 39 S 15 24 29.62 1003 10 16.09344 0 0
5:35 pm 17:35 Sunny 91 32.6 62 16.4 38 38 S 13 20 29.59 1002 10 16.09344 0 0
5:55 pm 17:55 Sunny 90 32.3 61 16.3 38 38 S 12 19 29.59 1002 10 16.09344 0 0
6:15 pm 18:15 Sunny 91 32.5 62 16.7 39 39 SSW 13 20 29.59 1002 10 16.09344 0 0
6:35 pm 18:35 Sunny 91 32.5 62 16.6 38 38 S 14 22 29.59 1002 10 16.09344 0 0
6:55 pm 18:55 Sunny 90 32 62 16.4 39 39 S 12 19 29.62 1003 10 16.09344 0 0
7:15 pm 19:15 Sunny 88 31 62 16.5 42 42 S 9 15 29.62 1003 10 16.09344 0 0
7:35 pm 19:35 Sunny 85 29.5 63 17.4 48 48 S 7 11 29.62 1003 10 16.09344 0 0
7:55 pm 19:55 Sunny 84 28.8 63 17.4 50 50 S 8 13 29.62 1003 10 16.09344 0 0
8:15 pm 20:15 Sunny 83 28.5 64 18 53 53 SSE 7 11 29.62 1003 10 16.09344 0 0
8:35 pm 20:35 Sunny 82 27.8 65 18.3 56 56 SSE 8 13 29.65 1004 10 16.09344 0 0
8:55 pm 20:55 Sunny 82 27.6 64 18 56 56 SSE 7 11 29.65 1004 10 16.09344 0 0
9:15 pm 21:15 Clear 79 26 64 18 61 61 SSE 8 13 29.65 1004 10 16.09344 0 0
9:35 pm 21:35 Clear 78 25.4 64 17.7 62 62 SSE 8 13 29.65 1004 10 16.09344 0 0
9:55 pm 21:55 Clear 76 24.5 64 17.5 65 65 SSE 8 13 29.71 1006 10 16.09344 0 0
10:15 pm 22:15 Clear 75 24 64 17.5 67 67 SSE 8 13 29.71 1006 10 16.09344 0 0
10:35 pm 22:35 Clear 74 23.5 64 17.7 70 70 SSE 8 13 29.71 1006 10 16.09344 0 0
10:55 pm 22:55 Clear 74 23.6 64 17.7 70 70 SSE 9 15 29.71 1006 10 16.09344 0 0
11:15 pm 23:15 Clear 73 23 64 17.5 71 71 SSE 9 15 29.71 1006 10 16.09344 0 0
11:35 pm 23:35 Clear 74 23.6 64 17.7 70 70 S 10 17 29.71 1006 10 16.09344 0 0
11:55 pm 23:55 Clear 74 23.6 64 18 71 71 S 10 17 29.71 1006 10 16.09344 0 0

Powered by AerisWeather